Weather Roundup
Issued by NWS Chicago, IL

Home | Current Version | Previous Version | Graphics & Text | Print | Product List | Glossary On
Versions: 1 2 3 4 5 6 7 8 9 10 11 12 13 14 15 16 17 18 19 20 21 22 23 24 25 26 27 28 29 30 31 32 33 34 35 36 37 38 39 40 41 42 43 44 45 46 47 48 49 50
000
NZUS59 KLOT 080503
HRRLOT

CHICAGO AREA WEATHER ROUNDUP
NATIONAL WEATHER SERVICE CHICAGO/ROMEOVILLE IL
1100 PM CST WED DEC 07 2016

NOTE: "FAIR" INDICATES FEW OR NO CLOUDS BELOW 12,000 FEET WITH NO
SIGNIFICANT WEATHER AND/OR OBSTRUCTIONS TO VISIBILITY.

* THESE STATIONS ARE NOT UNDER NWS QUALITY CONTROL. THEY ALSO MAY NOT
  REPORT WEATHER SUCH AS PRECIPITATION OR FOG.

ILZ005-006-012>014-019>023-080600-
NORTHEAST ILLINOIS

CITY           SKY/WX    TMP DP  RH WIND       PRES   REMARKS
OHARE          FLURRIES  24  15  68 W17G29    30.14S WCI  11
MIDWAY         FLURRIES  25  13  60 W17G30    30.16S WCI  12
AURORA         CLOUDY    24  16  71 W18G29    30.17R WCI  10
LANSING*       CLOUDY    24  17  74 W18G25    30.18R WCI  10
WAUKEGAN       CLOUDY    23  13  65 W13G21    30.10S WCI  11
DUPAGE AIRPORT CLOUDY    23  14  68 W25G31    30.15R WCI   7
WHEELING       CLOUDY    23  14  68 W14G25    30.15S WCI  11
KANKAKEE*      CLOUDY    25  17  73 W20       30.21R WCI  11
NORTHERLY ISL    N/A     25  15  66 W15         N/A  WCI  13
$$

WIZ051-052-058>065-066-070>072-080600-
SOUTHEAST WISCONSIN

CITY           SKY/WX    TMP DP  RH WIND       PRES   REMARKS
MILWAUKEE      FLURRIES  23  13  65 W15G24    30.09R WCI  10
KENOSHA*       CLOUDY    23  14  68 W23G30    30.09S WCI   7
RACINE*        CLOUDY    23  12  62 W17G26    30.10S WCI   9
$$

INZ001>003-010>013-019-020-080600-
NORTHWEST INDIANA

CITY           SKY/WX    TMP DP  RH WIND       PRES   REMARKS
GARY*          NOT AVBL
MICHIGAN CITY* NOT AVBL
RENSSELAER*    NOT AVBL
VALPARAISO     CLOUDY    24  15  68 W20G28    30.17R WCI  10
$$

LMZ740>746-080600-
SOUTHERN LAKE MICHIGAN

STATION/POSITION TIME  SKY/WX   TEMP WIND        PRES    VSBY
                                AIR  DIR/SP/G
                 (UTC)          (F)  (DEG/KT/KT) (MB)    (MI)
HARRISON CRIB    0440            25  280/ 26/ 32   N/A
BURNHAM HARBOR   0500            25  280/ 16/ 19   N/A
CALUMET HARBOR   0424            24  250/  9/ 15 1020.4
BURNS HARBOR     0341            26  270/ 22     1021.0
MICHIGAN CITY    0440            25  240/ 25/ 31   N/A
$$

ABBREVIATIONS USED IN REMARKS
   TC - TEMPERATURE IN CELSIUS
  WCI - WIND CHILL INDEX
   HX - HEAT INDEX
  VSB - VISIBILITY
$$




USA.gov is the U.S. government's official web portal to all federal, state and local government web resources and services.